Time,TemperatureF,DewpointF,PressureIn,WindDirection,WindDirectionDegrees,WindSpeedMPH,WindSpeedGustMPH,Humidity,HourlyPrecipIn,Conditions,Clouds,dailyrainin,SoftwareType,DateUTC
2013-02-24 00:04:00,47.2,9.2,29.94,North,356,2.0,6.0,21,0.00,CLR,,0.00,WeatherDisplay:10.37,2013-02-24 08:04:00,
2013-02-24 00:09:00,47.1,9.1,29.94,North,354,5.0,6.0,21,0.00,CLR,,0.00,WeatherDisplay:10.37,2013-02-24 08:09:00,
2013-02-24 00:19:00,47.0,9.0,29.97,NNW,346,2.0,6.0,21,0.00,CLR,,0.00,WeatherDisplay:10.37,2013-02-24 08:19:00,
2013-02-24 00:24:00,46.9,9.0,29.97,NNW,345,3.0,6.0,21,0.00,CLR,,0.00,WeatherDisplay:10.37,2013-02-24 08:24:00,
2013-02-24 00:29:00,47.1,9.1,29.94,North,351,3.0,6.0,21,0.00,CLR,,0.00,WeatherDisplay:10.37,2013-02-24 08:29:00,
2013-02-24 00:34:00,47.3,9.2,29.94,North,357,3.0,7.0,21,0.00,CLR,,0.00,WeatherDisplay:10.37,2013-02-24 08:34:00,
2013-02-24 00:39:00,46.9,9.0,29.94,North,2,3.0,8.0,21,0.00,CLR,,0.00,WeatherDisplay:10.37,2013-02-24 08:39:00,
2013-02-24 00:49:00,46.8,8.9,29.94,NNW,344,5.0,8.0,21,0.00,CLR,,0.00,WeatherDisplay:10.37,2013-02-24 08:49:00,
2013-02-24 00:54:00,46.8,8.8,29.94,North,353,3.0,6.0,21,0.00,CLR,,0.00,WeatherDisplay:10.37,2013-02-24 08:54:00,
2013-02-24 00:59:00,46.8,8.8,29.94,North,359,3.0,6.0,21,0.00,CLR,,0.00,WeatherDisplay:10.37,2013-02-24 08:59:00,
2013-02-24 01:09:00,46.6,8.7,29.94,NNW,348,3.0,7.0,21,0.00,CLR,,0.00,WeatherDisplay:10.37,2013-02-24 09:09:00,
2013-02-24 01:14:00,46.8,8.8,29.94,North,349,2.0,6.0,21,0.00,CLR,,0.00,WeatherDisplay:10.37,2013-02-24 09:14:00,
2013-02-24 01:19:00,46.7,8.8,29.94,NNW,342,3.0,6.0,21,0.00,CLR,,0.00,WeatherDisplay:10.37,2013-02-24 09:19:00,
2013-02-24 01:24:00,46.6,8.7,29.94,NNW,340,3.0,8.0,21,0.00,CLR,,0.00,WeatherDisplay:10.37,2013-02-24 09:24:00,
2013-02-24 01:29:00,46.6,8.7,29.94,NNW,345,2.0,8.0,21,0.00,CLR,,0.00,WeatherDisplay:10.37,2013-02-24 09:29:00,
2013-02-24 01:34:00,46.6,8.7,29.94,North,352,5.0,8.0,21,0.00,CLR,,0.00,WeatherDisplay:10.37,2013-02-24 09:34:00,
2013-02-24 01:39:00,46.6,8.7,29.94,North,349,5.0,7.0,21,0.00,CLR,,0.00,WeatherDisplay:10.37,2013-02-24 09:39:00,
2013-02-24 01:44:00,46.3,8.5,29.97,North,354,2.0,7.0,21,0.00,CLR,,0.00,WeatherDisplay:10.37,2013-02-24 09:44:00,
2013-02-24 01:49:00,45.9,9.1,29.97,NNW,346,1.0,5.0,22,0.00,CLR,,0.00,WeatherDisplay:10.37,2013-02-24 09:49:00,
2013-02-24 01:54:00,45.8,9.0,29.97,NNW,340,3.0,6.0,22,0.00,CLR,,0.00,WeatherDisplay:10.37,2013-02-24 09:54:00,
2013-02-24 01:59:00,46.4,8.5,29.97,North,351,5.0,8.0,21,0.00,CLR,,0.00,WeatherDisplay:10.37,2013-02-24 09:59:00,
2013-02-24 02:04:00,46.2,8.3,29.97,North,358,3.0,8.0,21,0.00,CLR,,0.00,WeatherDisplay:10.37,2013-02-24 10:04:00,
2013-02-24 02:09:00,46.4,8.5,29.97,North,356,3.0,8.0,21,0.00,CLR,,0.00,WeatherDisplay:10.37,2013-02-24 10:09:00,
2013-02-24 02:19:00,46.4,6.3,29.94,NNW,345,3.0,8.0,19,0.00,CLR,,0.00,WeatherDisplay:10.37,2013-02-24 10:19:00,
2013-02-24 02:24:00,46.2,6.1,29.94,NNW,344,1.0,5.0,19,0.00,CLR,,0.00,WeatherDisplay:10.37,2013-02-24 10:24:00,
2013-02-24 02:29:00,46.4,6.3,29.94,North,354,1.0,9.0,19,0.00,CLR,,0.00,WeatherDisplay:10.37,2013-02-24 10:29:00,
2013-02-24 02:39:00,46.4,6.3,29.94,North,357,6.0,8.0,19,0.00,CLR,,0.00,WeatherDisplay:10.37,2013-02-24 10:39:00,
2013-02-24 02:44:00,46.6,6.5,29.94,North,354,6.0,13.0,19,0.00,CLR,,0.00,WeatherDisplay:10.37,2013-02-24 10:44:00,
2013-02-24 02:49:00,46.6,6.4,29.94,North,351,5.0,8.0,19,0.00,CLR,,0.00,WeatherDisplay:10.37,2013-02-24 10:49:00,
2013-02-24 02:59:00,46.4,6.3,29.94,North,8,3.0,7.0,19,0.00,CLR,,0.00,WeatherDisplay:10.37,2013-02-24 10:59:00,
2013-02-24 03:09:00,46.9,6.7,29.94,North,2,6.0,10.0,19,0.00,CLR,,0.00,WeatherDisplay:10.37,2013-02-24 11:09:00,
2013-02-24 03:14:00,46.8,6.6,29.94,North,358,5.0,8.0,19,0.00,CLR,,0.00,WeatherDisplay:10.37,2013-02-24 11:14:00,
2013-02-24 03:19:00,46.8,6.6,29.94,North,360,5.0,12.0,19,0.00,CLR,,0.00,WeatherDisplay:10.37,2013-02-24 11:19:00,
2013-02-24 03:29:00,46.9,6.7,29.91,North,5,6.0,12.0,19,0.00,CLR,,0.00,WeatherDisplay:10.37,2013-02-24 11:29:00,
2013-02-24 03:34:00,46.9,6.7,29.91,North,2,6.0,9.0,19,0.00,CLR,,0.00,WeatherDisplay:10.37,2013-02-24 11:34:00,
2013-02-24 03:39:00,46.8,6.6,29.91,North,2,6.0,9.0,19,0.00,CLR,,0.00,WeatherDisplay:10.37,2013-02-24 11:39:00,
2013-02-24 03:44:00,46.6,6.4,29.94,North,7,5.0,8.0,19,0.00,CLR,,0.00,WeatherDisplay:10.37,2013-02-24 11:44:00,
2013-02-24 03:49:00,46.6,6.4,29.94,North,9,5.0,8.0,19,0.00,CLR,,0.00,WeatherDisplay:10.37,2013-02-24 11:49:00,
2013-02-24 03:54:00,46.4,6.3,29.94,North,9,5.0,8.0,19,0.00,CLR,,0.00,WeatherDisplay:10.37,2013-02-24 11:54:00,
2013-02-24 03:59:00,46.4,6.3,29.94,North,5,5.0,8.0,19,0.00,CLR,,0.00,WeatherDisplay:10.37,2013-02-24 11:59:00,
2013-02-24 04:04:00,46.0,6.0,29.94,North,6,3.0,6.0,19,0.00,CLR,,0.00,WeatherDisplay:10.37,2013-02-24 12:04:00,
2013-02-24 04:09:00,45.8,5.8,29.94,North,8,5.0,6.0,19,0.00,CLR,,0.00,WeatherDisplay:10.37,2013-02-24 12:09:00,
2013-02-24 04:14:00,46.0,6.0,29.94,North,7,2.0,6.0,19,0.00,CLR,,0.00,WeatherDisplay:10.37,2013-02-24 12:14:00,
2013-02-24 04:19:00,45.7,5.7,29.94,North,360,2.0,6.0,19,0.00,CLR,,0.00,WeatherDisplay:10.37,2013-02-24 12:19:00,
2013-02-24 04:24:00,46.0,6.0,29.94,North,355,6.0,8.0,19,0.00,CLR,,0.00,WeatherDisplay:10.37,2013-02-24 12:24:00,
2013-02-24 04:29:00,46.0,6.0,29.94,North,356,3.0,6.0,19,0.00,CLR,,0.00,WeatherDisplay:10.37,2013-02-24 12:29:00,
2013-02-24 04:39:00,45.6,5.7,29.94,North,355,2.0,6.0,19,0.00,CLR,,0.00,WeatherDisplay:10.37,2013-02-24 12:39:00,
2013-02-24 04:44:00,45.5,5.6,29.94,North,350,6.0,9.0,19,0.00,CLR,,0.00,WeatherDisplay:10.37,2013-02-24 12:44:00,
2013-02-24 04:49:00,45.3,5.4,29.94,North,353,1.0,6.0,19,0.00,CLR,,0.00,WeatherDisplay:10.37,2013-02-24 12:49:00,
2013-02-24 04:54:00,45.0,5.1,29.94,North,355,3.0,6.0,19,0.00,CLR,,0.00,WeatherDisplay:10.37,2013-02-24 12:54:00,
2013-02-24 04:59:00,45.4,5.4,29.94,North,357,2.0,6.0,19,0.00,CLR,,0.00,WeatherDisplay:10.37,2013-02-24 12:59:00,
2013-02-24 05:04:00,45.5,5.6,29.94,North,355,3.0,8.0,19,0.00,CLR,,0.00,WeatherDisplay:10.37,2013-02-24 13:04:00,
2013-02-24 05:09:00,45.3,5.4,29.94,North,352,1.0,6.0,19,0.00,CLR,,0.00,WeatherDisplay:10.37,2013-02-24 13:09:00,
2013-02-24 05:14:00,45.1,5.3,29.94,NNW,341,3.0,6.0,19,0.00,CLR,,0.00,WeatherDisplay:10.37,2013-02-24 13:14:00,
2013-02-24 05:19:00,45.5,5.5,29.94,North,354,5.0,8.0,19,0.00,CLR,,0.00,WeatherDisplay:10.37,2013-02-24 13:19:00,
2013-02-24 05:24:00,45.3,5.4,29.94,North,5,2.0,5.0,19,0.00,CLR,,0.00,WeatherDisplay:10.37,2013-02-24 13:24:00,
2013-02-24 05:29:00,45.3,5.4,29.94,North,8,3.0,6.0,19,0.00,CLR,,0.00,WeatherDisplay:10.37,2013-02-24 13:29:00,
2013-02-24 05:34:00,45.1,5.3,29.94,North,3,3.0,5.0,19,0.00,CLR,,0.00,WeatherDisplay:10.37,2013-02-24 13:34:00,
2013-02-24 05:39:00,45.0,5.1,29.94,North,355,3.0,6.0,19,0.00,CLR,,0.00,WeatherDisplay:10.37,2013-02-24 13:39:00,
2013-02-24 05:49:00,44.5,4.7,29.94,NNW,346,1.0,6.0,19,0.00,CLR,,0.00,WeatherDisplay:10.37,2013-02-24 13:49:00,
2013-02-24 05:54:00,44.4,4.7,29.94,NNW,343,2.0,4.0,19,0.00,CLR,,0.00,WeatherDisplay:10.37,2013-02-24 13:54:00,
2013-02-24 05:59:00,43.9,5.3,29.94,North,354,0.0,3.0,20,0.00,CLR,,0.00,WeatherDisplay:10.37,2013-02-24 13:59:00,
2013-02-24 06:04:00,43.9,5.3,29.94,North,353,0.0,0.0,20,0.00,CLR,,0.00,WeatherDisplay:10.37,2013-02-24 14:04:00,
2013-02-24 06:09:00,42.8,4.4,29.94,NNW,342,0.0,3.0,20,0.00,CLR,,0.00,WeatherDisplay:10.37,2013-02-24 14:09:00,
2013-02-24 06:14:00,42.8,4.4,29.94,NNW,338,0.0,3.0,20,0.00,CLR,,0.00,WeatherDisplay:10.37,2013-02-24 14:14:00,
2013-02-24 06:19:00,42.6,4.3,29.94,NNW,338,0.0,0.0,20,0.00,CLR,,0.00,WeatherDisplay:10.37,2013-02-24 14:19:00,
2013-02-24 06:24:00,43.0,4.6,29.94,NNW,338,1.0,5.0,20,0.00,CLR,,0.00,WeatherDisplay:10.37,2013-02-24 14:24:00,
2013-02-24 06:29:00,42.8,4.5,29.94,NNW,330,1.0,5.0,20,0.00,CLR,,0.00,WeatherDisplay:10.37,2013-02-24 14:29:00,
2013-02-24 06:34:00,43.2,4.7,29.94,NNW,328,2.0,5.0,20,0.00,CLR,,0.00,WeatherDisplay:10.37,2013-02-24 14:34:00,
2013-02-24 06:39:00,43.2,4.7,29.94,NNW,332,2.0,4.0,20,0.00,CLR,,0.00,WeatherDisplay:10.37,2013-02-24 14:39:00,
2013-02-24 06:44:00,43.1,4.6,29.94,NNW,336,0.0,3.0,20,0.00,CLR,,0.00,WeatherDisplay:10.37,2013-02-24 14:44:00,
2013-02-24 06:49:00,43.7,5.2,29.94,NNW,346,1.0,6.0,20,0.00,CLR,,0.00,WeatherDisplay:10.37,2013-02-24 14:49:00,
2013-02-24 06:59:00,44.1,5.5,29.94,North,351,1.0,5.0,20,0.00,CLR,,0.00,WeatherDisplay:10.37,2013-02-24 14:59:00,
2013-02-24 07:04:00,44.3,7.8,29.94,North,350,3.0,5.0,22,0.00,CLR,,0.00,WeatherDisplay:10.37,2013-02-24 15:04:00,
2013-02-24 07:09:00,44.8,8.2,29.94,North,350,1.0,5.0,22,0.00,CLR,,0.00,WeatherDisplay:10.37,2013-02-24 15:09:00,
2013-02-24 07:14:00,44.8,8.2,29.94,North,352,2.0,6.0,22,0.00,CLR,,0.00,WeatherDisplay:10.37,2013-02-24 15:14:00,
2013-02-24 07:19:00,45.7,5.7,29.94,North,357,1.0,6.0,19,0.00,CLR,,0.00,WeatherDisplay:10.37,2013-02-24 15:19:00,
2013-02-24 07:24:00,46.0,6.0,29.94,NNW,343,1.0,5.0,19,0.00,CLR,,0.00,WeatherDisplay:10.37,2013-02-24 15:24:00,
2013-02-24 07:29:00,46.6,6.5,29.94,North,354,3.0,7.0,19,0.00,CLR,,0.00,WeatherDisplay:10.37,2013-02-24 15:29:00,
2013-02-24 07:34:00,47.0,7.9,29.94,North,360,3.0,6.0,20,0.00,CLR,,0.00,WeatherDisplay:10.37,2013-02-24 15:34:00,
2013-02-24 07:39:00,47.3,7.0,29.94,North,358,2.0,8.0,19,0.00,CLR,,0.00,WeatherDisplay:10.37,2013-02-24 15:39:00,
2013-02-24 07:49:00,48.2,7.8,29.94,NNE,17,1.0,6.0,19,0.00,CLR,,0.00,WeatherDisplay:10.37,2013-02-24 15:49:00,
2013-02-24 07:54:00,48.6,8.1,29.94,North,0,2.0,5.0,19,0.00,CLR,,0.00,WeatherDisplay:10.37,2013-02-24 15:54:00,
2013-02-24 07:59:00,48.9,8.4,29.97,North,353,5.0,6.0,19,0.00,CLR,,0.00,WeatherDisplay:10.37,2013-02-24 15:59:00,
2013-02-24 08:04:00,49.1,8.5,29.97,North,358,2.0,5.0,19,0.00,CLR,,0.00,WeatherDisplay:10.37,2013-02-24 16:04:00,
2013-02-24 08:09:00,49.5,8.8,29.97,North,2,3.0,6.0,19,0.00,CLR,,0.00,WeatherDisplay:10.37,2013-02-24 16:09:00,
2013-02-24 08:14:00,49.8,7.9,29.97,North,1,3.0,6.0,18,0.00,CLR,,0.00,WeatherDisplay:10.37,2013-02-24 16:14:00,
2013-02-24 08:19:00,50.0,8.1,29.97,North,1,5.0,8.0,18,0.00,CLR,,0.00,WeatherDisplay:10.37,2013-02-24 16:19:00,
2013-02-24 08:24:00,50.4,8.4,29.97,North,3,5.0,6.0,18,0.00,CLR,,0.00,WeatherDisplay:10.37,2013-02-24 16:24:00,
2013-02-24 08:29:00,50.5,8.5,29.97,North,7,3.0,8.0,18,0.00,CLR,,0.00,WeatherDisplay:10.37,2013-02-24 16:29:00,
2013-02-24 08:39:00,51.4,9.3,29.97,NNE,18,2.0,7.0,18,0.00,CLR,,0.00,WeatherDisplay:10.37,2013-02-24 16:39:00,
2013-02-24 08:44:00,51.9,9.6,29.97,NNE,13,2.0,6.0,18,0.00,CLR,,0.00,WeatherDisplay:10.37,2013-02-24 16:44:00,
2013-02-24 08:49:00,52.0,9.7,29.97,North,7,6.0,8.0,18,0.00,CLR,,0.00,WeatherDisplay:10.37,2013-02-24 16:49:00,
2013-02-24 08:59:00,51.8,9.6,30.00,North,6,5.0,6.0,18,0.00,CLR,,0.00,WeatherDisplay:10.37,2013-02-24 16:59:00,
2013-02-24 09:04:00,52.5,10.2,30.00,NNE,19,1.0,6.0,18,0.00,CLR,,0.00,WeatherDisplay:10.37,2013-02-24 17:04:00,
2013-02-24 09:09:00,52.5,10.2,30.00,NNE,19,2.0,6.0,18,0.00,CLR,,0.00,WeatherDisplay:10.37,2013-02-24 17:09:00,
2013-02-24 09:14:00,52.9,10.5,29.97,NNE,13,5.0,8.0,18,0.00,CLR,,0.00,WeatherDisplay:10.37,2013-02-24 17:14:00,
2013-02-24 09:19:00,52.9,10.5,29.97,NNE,24,3.0,7.0,18,0.00,CLR,,0.00,WeatherDisplay:10.37,2013-02-24 17:19:00,
2013-02-24 09:24:00,52.9,10.5,29.97,NNE,15,5.0,7.0,18,0.00,CLR,,0.00,WeatherDisplay:10.37,2013-02-24 17:24:00,
2013-02-24 09:29:00,53.1,10.6,29.97,North,10,3.0,6.0,18,0.00,CLR,,0.00,WeatherDisplay:10.37,2013-02-24 17:29:00,
2013-02-24 09:39:00,53.4,9.6,29.97,NNE,14,7.0,8.0,17,0.00,CLR,,0.00,WeatherDisplay:10.37,2013-02-24 17:39:00,
2013-02-24 09:49:00,54.1,10.2,30.00,NNE,18,6.0,10.0,17,0.00,CLR,,0.00,WeatherDisplay:10.37,2013-02-24 17:49:00,
2013-02-24 09:54:00,54.0,10.1,30.00,NNE,20,6.0,9.0,17,0.00,CLR,,0.00,WeatherDisplay:10.37,2013-02-24 17:54:00,
2013-02-24 09:59:00,54.0,10.1,29.97,NNE,15,8.0,10.0,17,0.00,CLR,,0.00,WeatherDisplay:10.37,2013-02-24 17:59:00,
2013-02-24 10:04:00,54.1,10.2,29.97,NNE,14,8.0,12.0,17,0.00,CLR,,0.00,WeatherDisplay:10.37,2013-02-24 18:04:00,
2013-02-24 10:09:00,54.0,10.1,29.97,NNE,18,6.0,12.0,17,0.00,CLR,,0.00,WeatherDisplay:10.37,2013-02-24 18:09:00,
2013-02-24 10:14:00,54.7,10.6,29.97,NNE,16,6.0,8.0,17,0.00,CLR,,0.00,WeatherDisplay:10.37,2013-02-24 18:14:00,
2013-02-24 10:19:00,54.9,10.8,29.97,NNE,18,6.0,10.0,17,0.00,CLR,,0.00,WeatherDisplay:10.37,2013-02-24 18:19:00,
2013-02-24 10:24:00,54.7,10.6,29.97,North,10,8.0,12.0,17,0.00,CLR,,0.00,WeatherDisplay:10.37,2013-02-24 18:24:00,
2013-02-24 10:29:00,55.0,10.9,29.97,North,10,6.0,13.0,17,0.00,CLR,,0.00,WeatherDisplay:10.37,2013-02-24 18:29:00,
2013-02-24 10:34:00,55.1,11.0,29.97,NNE,12,6.0,14.0,17,0.00,CLR,,0.00,WeatherDisplay:10.37,2013-02-24 18:34:00,
2013-02-24 10:39:00,55.4,11.2,29.97,NNE,16,6.0,10.0,17,0.00,CLR,,0.00,WeatherDisplay:10.37,2013-02-24 18:39:00,
2013-02-24 10:44:00,55.8,11.5,29.97,NNE,13,5.0,9.0,17,0.00,CLR,,0.00,WeatherDisplay:10.37,2013-02-24 18:44:00,
2013-02-24 10:49:00,55.8,11.5,29.97,North,356,6.0,14.0,17,0.00,CLR,,0.00,WeatherDisplay:10.37,2013-02-24 18:49:00,
2013-02-24 10:54:00,55.9,11.7,29.97,North,10,7.0,12.0,17,0.00,CLR,,0.00,WeatherDisplay:10.37,2013-02-24 18:54:00,
2013-02-24 10:59:00,56.1,11.8,29.97,NNE,20,6.0,10.0,17,0.00,CLR,,0.00,WeatherDisplay:10.37,2013-02-24 18:59:00,
2013-02-24 11:04:00,56.5,12.1,29.97,NNE,19,6.0,9.0,17,0.00,CLR,,0.00,WeatherDisplay:10.37,2013-02-24 19:04:00,
2013-02-24 11:09:00,56.3,12.0,29.97,NNE,17,6.0,10.0,17,0.00,CLR,,0.00,WeatherDisplay:10.37,2013-02-24 19:09:00,
2013-02-24 11:14:00,56.6,12.3,29.97,NNE,19,6.0,10.0,17,0.00,CLR,,0.00,WeatherDisplay:10.37,2013-02-24 19:14:00,
2013-02-24 11:19:00,57.0,12.6,29.97,NE,34,5.0,6.0,17,0.00,CLR,,0.00,WeatherDisplay:10.37,2013-02-24 19:19:00,
2013-02-24 11:29:00,56.7,12.3,29.97,NE,35,6.0,8.0,17,0.00,CLR,,0.00,WeatherDisplay:10.37,2013-02-24 19:29:00,
2013-02-24 11:34:00,57.4,12.9,29.97,NNE,32,5.0,8.0,17,0.00,CLR,,0.00,WeatherDisplay:10.37,2013-02-24 19:34:00,
2013-02-24 11:39:00,57.0,12.6,29.97,NNE,16,5.0,12.0,17,0.00,CLR,,0.00,WeatherDisplay:10.37,2013-02-24 19:39:00,
2013-02-24 11:44:00,57.6,13.0,29.97,North,6,5.0,8.0,17,0.00,CLR,,0.00,WeatherDisplay:10.37,2013-02-24 19:44:00,
2013-02-24 11:49:00,57.6,13.0,29.97,North,359,3.0,6.0,17,0.00,CLR,,0.00,WeatherDisplay:10.37,2013-02-24 19:49:00,
2013-02-24 11:54:00,58.1,13.4,29.97,North,6,2.0,5.0,17,0.00,CLR,,0.00,WeatherDisplay:10.37,2013-02-24 19:54:00,
2013-02-24 11:59:00,57.8,13.2,29.97,North,7,5.0,7.0,17,0.00,CLR,,0.00,WeatherDisplay:10.37,2013-02-24 19:59:00,
2013-02-24 12:04:00,57.6,13.0,29.97,NE,48,3.0,6.0,17,0.00,CLR,,0.00,WeatherDisplay:10.37,2013-02-24 20:04:00,
2013-02-24 12:09:00,57.9,13.3,29.97,NE,52,2.0,6.0,17,0.00,CLR,,0.00,WeatherDisplay:10.37,2013-02-24 20:09:00,
2013-02-24 12:19:00,58.1,13.5,29.97,NNE,33,3.0,6.0,17,0.00,CLR,,0.00,WeatherDisplay:10.37,2013-02-24 20:19:00,
2013-02-24 12:24:00,58.5,13.8,29.97,NNE,18,3.0,6.0,17,0.00,CLR,,0.00,WeatherDisplay:10.37,2013-02-24 20:24:00,
2013-02-24 12:34:00,59.3,13.0,29.97,NNE,24,0.0,6.0,16,0.00,CLR,,0.00,WeatherDisplay:10.37,2013-02-24 20:34:00,
2013-02-24 12:39:00,59.5,13.2,29.97,North,7,5.0,6.0,16,0.00,CLR,,0.00,WeatherDisplay:10.37,2013-02-24 20:39:00,
2013-02-24 12:44:00,59.4,13.1,29.94,North,2,5.0,7.0,16,0.00,CLR,,0.00,WeatherDisplay:10.37,2013-02-24 20:44:00,
2013-02-24 12:49:00,59.4,13.1,29.94,North,7,5.0,6.0,16,0.00,CLR,,0.00,WeatherDisplay:10.37,2013-02-24 20:49:00,
2013-02-24 12:59:00,59.8,13.4,29.94,NNE,12,1.0,5.0,16,0.00,CLR,,0.00,WeatherDisplay:10.37,2013-02-24 20:59:00,
2013-02-24 13:04:00,59.9,13.5,29.94,NNE,17,3.0,5.0,16,0.00,CLR,,0.00,WeatherDisplay:10.37,2013-02-24 21:04:00,
2013-02-24 13:09:00,60.2,13.8,29.94,NNE,15,3.0,6.0,16,0.00,CLR,,0.00,WeatherDisplay:10.37,2013-02-24 21:09:00,
2013-02-24 13:19:00,60.3,13.8,29.94,North,4,2.0,7.0,16,0.00,CLR,,0.00,WeatherDisplay:10.37,2013-02-24 21:19:00,
2013-02-24 13:29:00,59.2,12.9,29.94,North,349,5.0,8.0,16,0.00,CLR,,0.00,WeatherDisplay:10.37,2013-02-24 21:29:00,
2013-02-24 13:34:00,59.1,12.9,29.94,North,357,2.0,6.0,16,0.00,CLR,,0.00,WeatherDisplay:10.37,2013-02-24 21:34:00,
2013-02-24 13:39:00,58.8,12.7,29.94,East,90,2.0,5.0,16,0.00,CLR,,0.00,WeatherDisplay:10.37,2013-02-24 21:39:00,
2013-02-24 13:44:00,58.5,13.8,29.94,NE,44,2.0,8.0,17,0.00,CLR,,0.00,WeatherDisplay:10.37,2013-02-24 21:44:00,
2013-02-24 13:49:00,58.6,13.8,29.94,NE,37,2.0,5.0,17,0.00,CLR,,0.00,WeatherDisplay:10.37,2013-02-24 21:49:00,
2013-02-24 13:54:00,58.8,12.7,29.94,NNW,327,3.0,5.0,16,0.00,CLR,,0.00,WeatherDisplay:10.37,2013-02-24 21:54:00,
2013-02-24 13:59:00,58.1,13.5,29.91,North,352,2.0,10.0,17,0.00,CLR,,0.00,WeatherDisplay:10.37,2013-02-24 21:59:00,
2013-02-24 14:09:00,57.4,12.9,29.91,NNW,336,1.0,10.0,17,0.00,CLR,,0.00,WeatherDisplay:10.37,2013-02-24 22:09:00,
2013-02-24 14:14:00,57.6,13.0,29.91,NNE,19,2.0,5.0,17,0.00,CLR,,0.00,WeatherDisplay:10.37,2013-02-24 22:14:00,
2013-02-24 14:19:00,57.4,12.9,29.91,North,356,2.0,8.0,17,0.00,CLR,,0.00,WeatherDisplay:10.37,2013-02-24 22:19:00,
2013-02-24 14:24:00,57.2,12.7,29.91,North,1,1.0,6.0,17,0.00,CLR,,0.00,WeatherDisplay:10.37,2013-02-24 22:24:00,
2013-02-24 14:29:00,57.4,12.9,29.91,North,353,1.0,4.0,17,0.00,CLR,,0.00,WeatherDisplay:10.37,2013-02-24 22:29:00,
2013-02-24 14:39:00,57.2,12.7,29.91,WNW,293,3.0,5.0,17,0.00,CLR,,0.00,WeatherDisplay:10.37,2013-02-24 22:39:00,
2013-02-24 14:44:00,57.4,12.9,29.91,WSW,244,3.0,6.0,17,0.00,CLR,,0.00,WeatherDisplay:10.37,2013-02-24 22:44:00,
2013-02-24 14:49:00,57.3,12.8,29.91,SW,226,2.0,5.0,17,0.00,CLR,,0.00,WeatherDisplay:10.37,2013-02-24 22:49:00,
2013-02-24 14:54:00,57.2,12.7,29.91,NNW,329,1.0,6.0,17,0.00,CLR,,0.00,WeatherDisplay:10.37,2013-02-24 22:54:00,
2013-02-24 14:59:00,57.0,12.6,29.91,NW,323,3.0,8.0,17,0.00,CLR,,0.00,WeatherDisplay:10.37,2013-02-24 22:59:00,
2013-02-24 15:04:00,56.8,12.4,29.91,WSW,251,2.0,8.0,17,0.00,CLR,,0.00,WeatherDisplay:10.37,2013-02-24 23:04:00,
2013-02-24 15:09:00,56.7,12.3,29.91,SSW,210,2.0,6.0,17,0.00,CLR,,0.00,WeatherDisplay:10.37,2013-02-24 23:09:00,
2013-02-24 15:14:00,56.5,12.1,29.91,NW,317,3.0,7.0,17,0.00,CLR,,0.00,WeatherDisplay:10.37,2013-02-24 23:14:00,
2013-02-24 15:19:00,56.5,12.1,29.91,WNW,294,2.0,6.0,17,0.00,CLR,,0.00,WeatherDisplay:10.37,2013-02-24 23:19:00,
2013-02-24 15:24:00,56.5,12.1,29.91,West,273,3.0,6.0,17,0.00,CLR,,0.00,WeatherDisplay:10.37,2013-02-24 23:24:00,
2013-02-24 15:29:00,56.1,11.8,29.91,West,274,1.0,5.0,17,0.00,CLR,,0.00,WeatherDisplay:10.37,2013-02-24 23:29:00,
2013-02-24 15:34:00,56.1,11.8,29.91,WSW,247,5.0,6.0,17,0.00,CLR,,0.00,WeatherDisplay:10.37,2013-02-24 23:34:00,
2013-02-24 15:39:00,55.8,11.5,29.91,SW,230,3.0,8.0,17,0.00,CLR,,0.00,WeatherDisplay:10.37,2013-02-24 23:39:00,
2013-02-24 15:44:00,55.7,11.4,29.91,WSW,241,3.0,7.0,17,0.00,CLR,,0.00,WeatherDisplay:10.37,2013-02-24 23:44:00,
2013-02-24 15:49:00,55.1,11.0,29.91,WSW,242,6.0,7.0,17,0.00,CLR,,0.00,WeatherDisplay:10.37,2013-02-24 23:49:00,
2013-02-24 15:54:00,54.9,10.8,29.91,West,277,3.0,6.0,17,0.00,CLR,,0.00,WeatherDisplay:10.37,2013-02-24 23:54:00,
2013-02-24 15:59:00,54.7,10.7,29.91,WSW,251,2.0,8.0,17,0.00,CLR,,0.00,WeatherDisplay:10.37,2013-02-24 23:59:00,
2013-02-24 16:04:00,55.0,10.9,29.91,WSW,253,3.0,6.0,17,0.00,CLR,,0.00,WeatherDisplay:10.37,2013-02-25 00:04:00,
2013-02-24 16:09:00,55.0,10.9,29.91,WSW,250,3.0,6.0,17,0.00,CLR,,0.00,WeatherDisplay:10.37,2013-02-25 00:09:00,
2013-02-24 16:14:00,54.9,10.8,29.91,SW,231,3.0,6.0,17,0.00,CLR,,0.00,WeatherDisplay:10.37,2013-02-25 00:14:00,
2013-02-24 16:19:00,54.7,10.6,29.91,SW,229,5.0,8.0,17,0.00,CLR,,0.00,WeatherDisplay:10.37,2013-02-25 00:19:00,
2013-02-24 16:24:00,54.4,10.4,29.91,WSW,238,5.0,7.0,17,0.00,CLR,,0.00,WeatherDisplay:10.37,2013-02-25 00:24:00,
2013-02-24 16:29:00,53.8,13.6,29.91,WSW,246,5.0,8.0,20,0.00,CLR,,0.00,WeatherDisplay:10.37,2013-02-25 00:29:00,
2013-02-24 16:39:00,52.7,15.9,29.91,WSW,257,3.0,8.0,23,0.00,CLR,,0.00,WeatherDisplay:10.37,2013-02-25 00:39:00,
2013-02-24 16:49:00,52.0,18.1,29.91,WSW,238,5.0,10.0,26,0.00,CLR,,0.00,WeatherDisplay:10.37,2013-02-25 00:49:00,
2013-02-24 16:54:00,51.7,17.8,29.91,WSW,242,6.0,8.0,26,0.00,CLR,,0.00,WeatherDisplay:10.37,2013-02-25 00:54:00,
2013-02-24 16:59:00,51.5,17.7,29.91,SW,231,3.0,6.0,26,0.00,CLR,,0.00,WeatherDisplay:10.37,2013-02-25 00:59:00,
2013-02-24 17:04:00,51.3,17.5,29.91,SSW,210,3.0,9.0,26,0.00,CLR,,0.00,WeatherDisplay:10.37,2013-02-25 01:04:00,
2013-02-24 17:09:00,50.9,18.1,29.91,SSW,208,5.0,6.0,27,0.00,CLR,,0.00,WeatherDisplay:10.37,2013-02-25 01:09:00,
2013-02-24 17:14:00,50.7,17.9,29.88,SW,225,3.0,8.0,27,0.00,CLR,,0.00,WeatherDisplay:10.37,2013-02-25 01:14:00,
2013-02-24 17:19:00,50.5,18.6,29.88,SW,221,5.0,8.0,28,0.00,CLR,,0.00,WeatherDisplay:10.37,2013-02-25 01:19:00,
2013-02-24 17:24:00,50.2,18.3,29.88,SSW,196,5.0,8.0,28,0.00,CLR,,0.00,WeatherDisplay:10.37,2013-02-25 01:24:00,
2013-02-24 17:29:00,50.0,19.7,29.91,SSW,204,5.0,8.0,30,0.00,CLR,,0.00,WeatherDisplay:10.37,2013-02-25 01:29:00,
2013-02-24 17:39:00,49.4,20.0,29.91,SW,235,3.0,8.0,31,0.00,CLR,,0.00,WeatherDisplay:10.37,2013-02-25 01:39:00,
2013-02-24 17:44:00,49.3,20.6,29.91,WSW,249,3.0,8.0,32,0.00,CLR,,0.00,WeatherDisplay:10.37,2013-02-25 01:44:00,
2013-02-24 17:49:00,49.1,21.2,29.91,WSW,252,5.0,8.0,33,0.00,CLR,,0.00,WeatherDisplay:10.37,2013-02-25 01:49:00,
2013-02-24 17:59:00,48.6,22.1,29.88,WSW,243,5.0,7.0,35,0.00,CLR,,0.00,WeatherDisplay:10.37,2013-02-25 01:59:00,
2013-02-24 18:04:00,48.2,21.1,29.88,WSW,251,5.0,7.0,34,0.00,CLR,,0.00,WeatherDisplay:10.37,2013-02-25 02:04:00,
2013-02-24 18:09:00,48.2,23.1,29.88,West,264,6.0,9.0,37,0.00,CLR,,0.00,WeatherDisplay:10.37,2013-02-25 02:09:00,
2013-02-24 18:14:00,47.8,23.4,29.91,West,262,5.0,8.0,38,0.00,CLR,,0.00,WeatherDisplay:10.37,2013-02-25 02:14:00,
2013-02-24 18:19:00,47.7,23.3,29.91,WSW,258,5.0,7.0,38,0.00,CLR,,0.00,WeatherDisplay:10.37,2013-02-25 02:19:00,
2013-02-24 18:24:00,47.7,22.6,29.91,West,262,3.0,8.0,37,0.00,CLR,,0.00,WeatherDisplay:10.37,2013-02-25 02:24:00,
2013-02-24 18:29:00,47.7,22.6,29.91,West,266,5.0,9.0,37,0.00,CLR,,0.00,WeatherDisplay:10.37,2013-02-25 02:29:00,
2013-02-24 18:34:00,47.3,22.3,29.91,WSW,258,5.0,7.0,37,0.00,CLR,,0.00,WeatherDisplay:10.37,2013-02-25 02:34:00,
2013-02-24 18:39:00,47.1,22.8,29.91,WSW,254,3.0,7.0,38,0.00,CLR,,0.00,WeatherDisplay:10.37,2013-02-25 02:39:00,
2013-02-24 18:44:00,46.9,23.2,29.91,West,262,6.0,7.0,39,0.00,CLR,,0.00,WeatherDisplay:10.37,2013-02-25 02:44:00,
2013-02-24 18:49:00,46.9,25.0,29.91,West,280,5.0,9.0,42,0.00,CLR,,0.00,WeatherDisplay:10.37,2013-02-25 02:49:00,
2013-02-24 18:59:00,46.6,24.1,29.91,West,271,5.0,8.0,41,0.00,CLR,,0.00,WeatherDisplay:10.37,2013-02-25 02:59:00,
2013-02-24 19:04:00,46.4,23.9,29.91,WNW,292,7.0,10.0,41,0.00,CLR,,0.00,WeatherDisplay:10.37,2013-02-25 03:04:00,
2013-02-24 19:09:00,46.6,26.3,29.91,WNW,295,6.0,10.0,45,0.00,CLR,,0.00,WeatherDisplay:10.37,2013-02-25 03:09:00,
2013-02-24 19:14:00,46.4,25.1,29.91,WNW,292,3.0,10.0,43,0.00,CLR,,0.00,WeatherDisplay:10.37,2013-02-25 03:14:00,
2013-02-24 19:19:00,46.5,26.3,29.91,WNW,285,5.0,8.0,45,0.00,CLR,,0.00,WeatherDisplay:10.37,2013-02-25 03:19:00,
2013-02-24 19:24:00,46.2,24.9,29.91,WNW,285,2.0,6.0,43,0.00,CLR,,0.00,WeatherDisplay:10.37,2013-02-25 03:24:00,
2013-02-24 19:29:00,46.0,24.8,29.91,WNW,293,5.0,9.0,43,0.00,CLR,,0.00,WeatherDisplay:10.37,2013-02-25 03:29:00,
2013-02-24 19:34:00,46.2,25.5,29.91,WNW,285,5.0,10.0,44,0.00,CLR,,0.00,WeatherDisplay:10.37,2013-02-25 03:34:00,
2013-02-24 19:44:00,46.2,24.9,29.91,NW,304,3.0,6.0,43,0.00,CLR,,0.00,WeatherDisplay:10.37,2013-02-25 03:44:00,
2013-02-24 19:49:00,46.2,24.4,29.91,WNW,294,3.0,6.0,42,0.00,CLR,,0.00,WeatherDisplay:10.37,2013-02-25 03:49:00,
2013-02-24 19:54:00,46.0,25.3,29.91,West,268,5.0,8.0,44,0.00,CLR,,0.00,WeatherDisplay:10.37,2013-02-25 03:54:00,
2013-02-24 19:59:00,46.0,26.4,29.91,WNW,290,5.0,8.0,46,0.00,CLR,,0.00,WeatherDisplay:10.37,2013-02-25 03:59:00,
2013-02-24 20:04:00,45.9,26.8,29.91,West,278,6.0,8.0,47,0.00,CLR,,0.00,WeatherDisplay:10.37,2013-02-25 04:04:00,
2013-02-24 20:09:00,45.7,24.4,29.91,WSW,257,5.0,10.0,43,0.00,CLR,,0.00,WeatherDisplay:10.37,2013-02-25 04:09:00,
2013-02-24 20:19:00,45.5,25.3,29.91,SW,235,3.0,7.0,45,0.00,CLR,,0.00,WeatherDisplay:10.37,2013-02-25 04:19:00,
2013-02-24 20:24:00,45.3,25.2,29.91,WSW,237,3.0,8.0,45,0.00,CLR,,0.00,WeatherDisplay:10.37,2013-02-25 04:24:00,
2013-02-24 20:29:00,45.4,25.3,29.91,WSW,242,0.0,8.0,45,0.00,CLR,,0.00,WeatherDisplay:10.37,2013-02-25 04:29:00,
2013-02-24 20:34:00,45.3,26.3,29.91,West,275,1.0,6.0,47,0.00,CLR,,0.00,WeatherDisplay:10.37,2013-02-25 04:34:00,
2013-02-24 20:39:00,45.1,26.1,29.91,West,274,2.0,5.0,47,0.00,CLR,,0.00,WeatherDisplay:10.37,2013-02-25 04:39:00,
2013-02-24 20:44:00,45.0,26.0,29.91,WSW,257,1.0,5.0,47,0.00,CLR,,0.00,WeatherDisplay:10.37,2013-02-25 04:44:00,
2013-02-24 20:49:00,45.1,25.5,29.91,WSW,244,0.0,5.0,46,0.00,CLR,,0.00,WeatherDisplay:10.37,2013-02-25 04:49:00,
2013-02-24 20:55:00,45.1,24.5,29.91,NNE,29,1.0,4.0,44,0.00,CLR,,0.00,WeatherDisplay:10.37,2013-02-25 04:55:00,
2013-02-24 21:00:00,45.0,24.3,29.94,NE,45,0.0,3.0,44,0.00,CLR,,0.00,WeatherDisplay:10.37,2013-02-25 05:00:00,
2013-02-24 21:05:00,44.8,25.8,29.94,NE,35,3.0,5.0,47,0.00,CLR,,0.00,WeatherDisplay:10.37,2013-02-25 05:05:00,
2013-02-24 21:10:00,44.6,24.5,29.94,NNE,26,0.0,3.0,45,0.00,CLR,,0.00,WeatherDisplay:10.37,2013-02-25 05:10:00,
2013-02-24 21:15:00,44.0,24.0,29.94,NNE,22,0.0,0.0,45,0.00,CLR,,0.00,WeatherDisplay:10.37,2013-02-25 05:15:00,
2013-02-24 21:20:00,44.0,24.0,29.94,NNE,22,0.0,0.0,45,0.00,CLR,,0.00,WeatherDisplay:10.37,2013-02-25 05:20:00,
2013-02-24 21:25:00,44.4,24.4,29.94,NE,37,2.0,5.0,45,0.00,CLR,,0.00,WeatherDisplay:10.37,2013-02-25 05:25:00,
2013-02-24 21:30:00,44.2,24.2,29.94,ENE,61,0.0,5.0,45,0.00,CLR,,0.00,WeatherDisplay:10.37,2013-02-25 05:30:00,
2013-02-24 21:35:00,43.9,23.9,29.94,ENE,68,0.0,0.0,45,0.00,CLR,,0.00,WeatherDisplay:10.37,2013-02-25 05:35:00,
2013-02-24 21:40:00,43.9,24.4,29.94,ENE,68,0.0,0.0,46,0.00,CLR,,0.00,WeatherDisplay:10.37,2013-02-25 05:40:00,
2013-02-24 21:45:00,43.3,23.9,29.94,ENE,68,0.0,0.0,46,0.00,CLR,,0.00,WeatherDisplay:10.37,2013-02-25 05:45:00,
2013-02-24 21:50:00,43.2,23.8,29.94,ENE,68,0.0,3.0,46,0.00,CLR,,0.00,WeatherDisplay:10.37,2013-02-25 05:50:00,
2013-02-24 21:55:00,43.3,23.9,29.94,ENE,68,0.0,0.0,46,0.00,CLR,,0.00,WeatherDisplay:10.37,2013-02-25 05:55:00,
2013-02-24 22:00:00,43.9,25.9,29.94,ENE,68,2.0,5.0,49,0.00,CLR,,0.00,WeatherDisplay:10.37,2013-02-25 06:00:00,
2013-02-24 22:05:00,44.1,27.5,29.94,ENE,74,0.0,6.0,52,0.00,CLR,,0.00,WeatherDisplay:10.37,2013-02-25 06:05:00,
2013-02-24 22:10:00,43.9,26.4,29.94,NE,34,0.0,5.0,50,0.00,CLR,,0.00,WeatherDisplay:10.37,2013-02-25 06:10:00,
2013-02-24 22:15:00,43.9,25.9,29.94,NNW,338,1.0,5.0,49,0.00,CLR,,0.00,WeatherDisplay:10.37,2013-02-25 06:15:00,
2013-02-24 22:20:00,44.2,27.2,29.94,NW,308,0.0,5.0,51,0.00,CLR,,0.00,WeatherDisplay:10.37,2013-02-25 06:20:00,
2013-02-24 22:25:00,44.1,26.1,29.94,NW,310,2.0,6.0,49,0.00,CLR,,0.00,WeatherDisplay:10.37,2013-02-25 06:25:00,
2013-02-24 22:30:00,44.2,26.3,29.94,WNW,292,3.0,7.0,49,0.00,CLR,,0.00,WeatherDisplay:10.37,2013-02-25 06:30:00,
2013-02-24 22:35:00,44.2,27.2,29.94,West,277,1.0,5.0,51,0.00,CLR,,0.00,WeatherDisplay:10.37,2013-02-25 06:35:00,
2013-02-24 22:45:00,44.4,27.9,29.94,West,273,3.0,8.0,52,0.00,CLR,,0.00,WeatherDisplay:10.37,2013-02-25 06:45:00,
2013-02-24 22:50:00,44.4,27.9,29.94,SW,223,3.0,9.0,52,0.00,CLR,,0.00,WeatherDisplay:10.37,2013-02-25 06:50:00,
2013-02-24 22:55:00,44.6,28.5,29.94,WSW,242,5.0,9.0,53,0.00,CLR,,0.00,WeatherDisplay:10.37,2013-02-25 06:55:00,
2013-02-24 23:00:00,44.6,29.4,29.97,SSW,211,3.0,9.0,55,0.00,CLR,,0.00,WeatherDisplay:10.37,2013-02-25 07:00:00,
2013-02-24 23:05:00,44.6,29.9,29.97,SSW,201,3.0,6.0,56,0.00,CLR,,0.00,WeatherDisplay:10.37,2013-02-25 07:05:00,
2013-02-24 23:10:00,44.6,29.4,29.97,SW,231,5.0,8.0,55,0.00,CLR,,0.00,WeatherDisplay:10.37,2013-02-25 07:10:00,
2013-02-24 23:20:00,44.7,29.0,29.94,SW,217,5.0,8.0,54,0.00,CLR,,0.00,WeatherDisplay:10.37,2013-02-25 07:20:00,
2013-02-24 23:25:00,44.8,29.6,29.94,WSW,253,5.0,8.0,55,0.00,CLR,,0.00,WeatherDisplay:10.37,2013-02-25 07:25:00,
2013-02-24 23:35:00,44.4,29.7,29.94,SW,231,3.0,8.0,56,0.00,CLR,,0.00,WeatherDisplay:10.37,2013-02-25 07:35:00,
2013-02-24 23:40:00,44.6,29.9,29.94,SSW,213,2.0,6.0,56,0.00,CLR,,0.00,WeatherDisplay:10.37,2013-02-25 07:40:00,
2013-02-24 23:45:00,44.8,30.9,29.94,South,191,5.0,8.0,58,0.00,CLR,,0.00,WeatherDisplay:10.37,2013-02-25 07:45:00,
2013-02-24 23:50:00,44.8,30.9,29.94,SSW,212,3.0,9.0,58,0.00,CLR,,0.00,WeatherDisplay:10.37,2013-02-25 07:50:00,